| time (UTC) | temp F | wind direction | speed knots | gust knots | rain 1hr in | rain 24hr in | rain mn in | humidity % | barometer mb |
| 20260504050002 | 44 | 348 | 11.3 | 12.2 | 0.00 | 0.00 | 0.00 | 73 | 1017.0 |
| 20260504045001 | 44 | 346 | 8.7 | 9.6 | 0.00 | 0.00 | 0.00 | 74 | 1017.0 |
| 20260504044002 | 43 | 349 | 11.3 | 11.3 | 0.00 | 0.00 | 0.00 | 75 | 1017.0 |
| 20260504043001 | 42 | 339 | 9.6 | 10.4 | 0.00 | 0.00 | 0.00 | 75 | 1016.0 |
| 20260504042002 | 42 | 353 | 7.8 | 11.3 | 0.00 | 0.00 | 0.00 | 75 | 1017.0 |
| 20260504041001 | 42 | 340 | 6.1 | 11.3 | 0.00 | 0.00 | 0.00 | 75 | 1016.0 |
| 20260504040002 | 41 | 334 | 7.8 | 10.4 | 0.00 | 0.00 | 0.00 | 76 | 1016.0 |
| 20260504035001 | 42 | 337 | 7.0 | 13.0 | 0.00 | 0.00 | 0.00 | 76 | 1016.0 |
| 20260504034002 | 41 | 346 | 7.0 | 10.4 | 0.00 | 0.00 | 0.00 | 76 | 1016.0 |
| 20260504033001 | 41 | 1 | 9.6 | 11.3 | 0.00 | 0.00 | 0.00 | 76 | 1016.0 |
| 20260504032002 | 41 | 345 | 6.1 | 9.6 | 0.00 | 0.00 | 0.00 | 77 | 1016.0 |
| 20260504031001 | 40 | 351 | 7.8 | 10.4 | 0.00 | 0.00 | 0.00 | 77 | 1016.0 |
| 20260504030002 | 40 | 345 | 10.4 | 12.2 | 0.00 | 0.00 | 0.00 | 78 | 1016.0 |
| 20260504025001 | 40 | 355 | 8.7 | 9.6 | 0.00 | 0.00 | 0.00 | 80 | 1016.0 |
| 20260504024002 | 39 | 346 | 6.1 | 7.8 | 0.00 | 0.00 | 0.00 | 80 | 1016.0 |
| 20260504023002 | 39 | 350 | 6.1 | 10.4 | 0.00 | 0.00 | 0.00 | 81 | 1016.0 |
| 20260504022001 | 38 | 337 | 3.5 | 6.1 | 0.00 | 0.00 | 0.00 | 83 | 1016.0 |
| 20260504021002 | 38 | 347 | 7.0 | 8.7 | 0.00 | 0.00 | 0.00 | 82 | 1016.0 |
| 20260504020001 | 39 | 351 | 9.6 | 9.6 | 0.00 | 0.00 | 0.00 | 82 | 1016.0 |
| 20260504015002 | 39 | 352 | 7.8 | 11.3 | 0.00 | 0.00 | 0.00 | 82 | 1016.0 |
| 20260504014001 | 39 | 355 | 5.2 | 6.1 | 0.00 | 0.00 | 0.00 | 81 | 1017.0 |
| 20260504013002 | 39 | 350 | 5.2 | 7.8 | 0.00 | 0.00 | 0.00 | 81 | 1017.0 |
| 20260504012001 | 39 | 349 | 5.2 | 7.0 | 0.00 | 0.00 | 0.00 | 80 | 1017.0 |
| 20260504011002 | 39 | 353 | 5.2 | 7.0 | 0.00 | 0.00 | 0.00 | 79 | 1017.0 |
| 20260504010002 | 39 | 0 | 5.2 | 7.0 | 0.00 | 0.00 | 0.00 | 79 | 1017.0 |
| 20260504005001 | 39 | 354 | 9.6 | 9.6 | 0.00 | 0.00 | 0.00 | 79 | 1017.0 |
| 20260504004002 | 40 | 352 | 7.0 | 7.8 | 0.00 | 0.00 | 0.00 | 78 | 1017.0 |
| 20260504003002 | 40 | 350 | 4.3 | 6.1 | 0.00 | 0.00 | 0.00 | 77 | 1018.0 |
| 20260504002002 | 41 | 350 | 8.7 | 9.6 | 0.00 | 0.00 | 0.00 | 74 | 1018.0 |
| 20260504001002 | 42 | 354 | 7.0 | 10.4 | 0.00 | 0.00 | 0.00 | 72 | 1018.0 |
| 20260504000001 | 42 | 339 | 5.2 | 9.6 | 0.00 | 0.00 | 0.00 | 70 | 1018.0 |
| 20260503235002 | 42 | 350 | 7.0 | 8.7 | 0.00 | 0.00 | 0.00 | 70 | 1018.0 |
| 20260503234002 | 42 | 345 | 6.1 | 8.7 | 0.00 | 0.00 | 0.00 | 71 | 1018.0 |
| 20260503233001 | 41 | 354 | 8.7 | 11.3 | 0.00 | 0.00 | 0.00 | 72 | 1018.0 |
| 20260503232002 | 41 | 356 | 5.2 | 5.2 | 0.00 | 0.00 | 0.00 | 74 | 1018.0 |
| 20260503231001 | 41 | 353 | 4.3 | 5.2 | 0.00 | 0.00 | 0.00 | 73 | 1018.0 |
| 20260503230002 | 41 | 3 | 3.5 | 5.2 | 0.00 | 0.00 | 0.00 | 73 | 1018.0 |
| 20260503225001 | 41 | 2 | 5.2 | 5.2 | 0.00 | 0.00 | 0.00 | 74 | 1018.0 |
| 20260503224002 | 41 | 0 | 4.3 | 5.2 | 0.00 | 0.00 | 0.00 | 74 | 1018.0 |
| 20260503223002 | 41 | 354 | 5.2 | 5.2 | 0.00 | 0.00 | 0.00 | 74 | 1018.0 |
| 20260503222001 | 41 | 359 | 3.5 | 4.3 | 0.00 | 0.00 | 0.00 | 73 | 1018.0 |
| 20260503221002 | 42 | 0 | 4.3 | 5.2 | 0.00 | 0.00 | 0.00 | 72 | 1018.0 |
| 20260503220002 | 42 | 0 | 6.1 | 7.0 | 0.00 | 0.00 | 0.00 | 71 | 1018.0 |
| 20260503215001 | 43 | 10 | 6.1 | 7.0 | 0.00 | 0.00 | 0.00 | 69 | 1018.0 |
| 20260503214002 | 43 | 356 | 6.1 | 7.0 | 0.00 | 0.00 | 0.00 | 68 | 1019.0 |
| 20260503213001 | 43 | 353 | 5.2 | 7.0 | 0.00 | 0.00 | 0.00 | 68 | 1018.0 |
| 20260503212002 | 44 | 358 | 5.2 | 6.1 | 0.00 | 0.00 | 0.00 | 68 | 1018.0 |
| 20260503211001 | 44 | 2 | 6.1 | 6.1 | 0.00 | 0.00 | 0.00 | 68 | 1018.0 |
| 20260503210001 | 44 | 355 | 5.2 | 6.1 | 0.00 | 0.00 | 0.00 | 68 | 1018.0 |
| 20260503205002 | 44 | 6 | 4.3 | 6.1 | 0.00 | 0.00 | 0.00 | 68 | 1018.0 |
| 20260503204001 | 44 | 359 | 3.5 | 6.1 | 0.00 | 0.00 | 0.00 | 68 | 1018.0 |
| 20260503203002 | 44 | 0 | 5.2 | 7.8 | 0.00 | 0.00 | 0.00 | 69 | 1019.0 |
| 20260503202001 | 44 | 351 | 5.2 | 6.1 | 0.00 | 0.00 | 0.00 | 70 | 1019.0 |
| 20260503201002 | 44 | 359 | 5.2 | 5.2 | 0.00 | 0.00 | 0.00 | 70 | 1019.0 |
| 20260503200001 | 44 | 354 | 5.2 | 5.2 | 0.00 | 0.00 | 0.00 | 71 | 1019.0 |
| 20260503195002 | 44 | 1 | 5.2 | 5.2 | 0.00 | 0.00 | 0.00 | 71 | 1019.0 |
| 20260503194001 | 44 | 353 | 4.3 | 6.1 | 0.00 | 0.00 | 0.00 | 70 | 1019.0 |
| 20260503193002 | 44 | 0 | 6.1 | 6.1 | 0.00 | 0.00 | 0.00 | 71 | 1019.0 |
| 20260503192002 | 44 | 2 | 3.5 | 5.2 | 0.00 | 0.00 | 0.00 | 70 | 1019.0 |
| 20260503191001 | 44 | 0 | 4.3 | 5.2 | 0.00 | 0.00 | 0.00 | 69 | 1020.0 |
| 20260503190002 | 45 | 4 | 3.5 | 5.2 | 0.00 | 0.00 | 0.00 | 69 | 1020.0 |
| 20260503185001 | 46 | 11 | 4.3 | 6.1 | 0.00 | 0.00 | 0.00 | 66 | 1020.0 |
| 20260503184002 | 46 | 0 | 3.5 | 5.2 | 0.00 | 0.00 | 0.00 | 66 | 1020.0 |
| 20260503183001 | 46 | 11 | 3.5 | 4.3 | 0.00 | 0.00 | 0.00 | 67 | 1020.0 |
| 20260503182002 | 46 | 17 | 4.3 | 4.3 | 0.00 | 0.00 | 0.00 | 68 | 1020.0 |
| 20260503181001 | 46 | 20 | 4.3 | 5.2 | 0.00 | 0.00 | 0.00 | 68 | 1020.0 |
| 20260503180002 | 47 | 20 | 2.6 | 4.3 | 0.00 | 0.00 | 0.00 | 67 | 1020.0 |
| 20260503175002 | 47 | 19 | 4.3 | 5.2 | 0.00 | 0.00 | 0.00 | 67 | 1020.0 |
| 20260503174001 | 48 | 17 | 2.6 | 3.5 | 0.00 | 0.00 | 0.00 | 66 | 1020.0 |
| 20260503173002 | 49 | 28 | 4.3 | 5.2 | 0.00 | 0.00 | 0.00 | 63 | 1020.0 |
| 20260503172001 | 50 | 30 | 4.3 | 4.3 | 0.00 | 0.00 | 0.00 | 60 | 1020.0 |
| 20260503171002 | 51 | 45 | 4.3 | 5.2 | 0.00 | 0.00 | 0.00 | 59 | 1020.0 |
| 20260503151002 | 55 | 86 | 3.5 | 4.3 | 0.00 | 0.00 | 0.00 | 56 | 1021.0 |
| 20260503131001 | 56 | 79 | 11.3 | 13.0 | 0.00 | 0.00 | 0.00 | 52 | 1021.0 |
| 20260503081001 | 55 | 76 | 7.0 | 8.7 | 0.00 | 0.00 | 0.00 | 64 | 1023.0 |
| 20260503072002 | 53 | 59 | 8.7 | 14.8 | 0.00 | 0.00 | 0.00 | 74 | 1023.0 |
| 20260503071001 | 52 | 60 | 9.6 | 13.9 | 0.00 | 0.00 | 0.00 | 76 | 1023.0 |
| 20260503055002 | 49 | 52 | 14.8 | 17.4 | 0.00 | 0.00 | 0.00 | 81 | 1022.0 |
| 20260503054001 | 49 | 56 | 8.7 | 13.0 | 0.00 | 0.00 | 0.00 | 81 | 1023.0 |
| 20260503053002 | 49 | 56 | 5.2 | 7.8 | 0.00 | 0.00 | 0.00 | 83 | 1022.0 |
| 20260503052001 | 50 | 66 | 13.9 | 17.4 | 0.00 | 0.00 | 0.00 | 81 | 1022.0 |